Voltar ao catálogo

STARLINK-34004

AtivoComunicaçõesVLEO
NORAD 63941·PAYLOAD·🇺🇸 United States

Lançado May 13, 2025 de Vandenberg Space Force Base

Loading…

Próximas Passagens (próximas 24 horas)

TLE

AtualizadoSource: CelesTrak SupGP

Época: Sep 14, 2026, 21:39 UTC

1 63941C 25098R   26257.90256944 -.00039528  00000+0 -13747-2 0  2577
2 63941  70.0001 155.7356 0003205 268.3578 173.7791 15.29607273    12

Acompanhe STARLINK-34004 em tempo real com AllMySat

Download on the App Store